Weather Roundup
Issued by NWS Springfield, MO

Home | Current Version | Previous Version | Text Only | Print | Product List | Glossary On
Versions: 1 2 3 4 5 6 7 8 9 10 11 12 13 14 15 16 17 18 19 20 21 22 23 24 25 26 27 28 29 30 31 32 33 34 35 36 37 38 39 40 41 42 43 44 45 46 47 48 49 50
000
NZUS99 KSGF 072207
HRRSGF

HOURLY WEATHER
NATIONAL WEATHER SERVICE SPRINGFIELD MO
500 PM CDT TUE JUL 07 2015

......SGF CWA......

CITY           SKY/WX    TMP DP  RH WIND       PRES   REMARKS
SPRINGFIELD    FOG       68  66  93 N9        30.01F VSB 1
JOPLIN         CLOUDY    66  63  90 N6        30.03F FOG
WEST PLAINS    CLOUDY    74  70  87 W5        30.01F
ROLLA          CLOUDY    65  64  97 N8        30.01S FOG
OSAGE BEACH    CLOUDY    66  63  88 N3        30.03S
BRANSON        CLOUDY    72  72 100 CALM      30.01F

......SURROUNDING SGF CWA......

CITY           SKY/WX    TMP DP  RH WIND       PRES   REMARKS
CHANUTE        CLOUDY    65  62  90 NE10G16   30.05R FOG
PARSONS        CLOUDY    66  64  93 N6        30.05S FOG
COFFEYVILLE    CLOUDY    68  63  84 NE10      30.03F
EMPORIA        CLOUDY    70  57  63 NE14      30.06S
GROVE OK       CLOUDY    70  70 100 N5        30.01F FOG
ROGERS AR      LGT RAIN  73  71  93 W6        30.02S
SILOAM SPRINGS CLOUDY    73  68  83 SW3       30.00F
HARRISON AR    CLOUDY    73  71  93 CALM      30.01S
NEAR YELLVILLE CLOUDY    73  72  94 CALM      29.97R

......KANSAS AND MISSOURI......

CITY           SKY/WX    TMP DP  RH WIND       PRES   REMARKS
KANSAS CTY INT CLOUDY    71  59  65 NE12      30.05F
DOWNTOWN KC    CLOUDY    72  58  61 NE10      30.04S
COLUMBIA       LGT RAIN  68  64  87 E5        30.03S FOG
SEDALIA        RAIN      69  64  84 E3        30.05R
ST JOSEPH      CLOUDY    72  56  57 NE7       30.06S
ST LOUIS       LGT RAIN  70  64  81 N8        30.02R
SPIRIT OF STL  CLOUDY    68  66  94 N6        30.01R FOG
KIRKSVILLE     HVY RAIN  73  57  57 NE8       30.06S
WICHITA        LGT RAIN  69  52  54 NE12      30.07R
TOPEKA         CLOUDY    70  59  68 N3        30.07R
OLATHE         CLOUDY    70  60  70 N10       30.04S

......TENNESSEE......

CITY           SKY/WX    TMP DP  RH WIND       PRES   REMARKS
MEMPHIS        PTSUNNY   89  73  59 SW14G23   30.00F HX  97
NASHVILLE      PTSUNNY   87  72  60 SW8G18    30.03F HX  93

......ARKANSAS.......

CITY           SKY/WX    TMP DP  RH WIND       PRES   REMARKS
FAYETTEVILLE   CLOUDY    72  71  97 S6        30.01R
FT SMITH       LGT RAIN  76  72  87 SW6       29.98R FOG
LITTLE ROCK    PTSUNNY   91  70  49 S17G24    29.97F HX  96

......OKLAHOMA.......

CITY           SKY/WX    TMP DP  RH WIND       PRES   REMARKS
TULSA          LGT RAIN  69  67  93 N13       29.96F FOG
PONCA CITY     LGT RAIN  67  64  90 NE10      30.03F FOG
MCALESTER      CLOUDY    79  74  84 NW8       29.96S
OKLAHOMA CITY  LGT RAIN  69  68  96 NE14      29.98F

......IOWA............

CITY           SKY/WX    TMP DP  RH WIND       PRES   REMARKS
DES MOINES     MOSUNNY   73  50  44 E7        30.08F
QUAD CITIES    PTSUNNY   72  54  53 N7        30.05S HAZE

......ILLINOIS........

CITY           SKY/WX    TMP DP  RH WIND       PRES   REMARKS
QUINCY         PTSUNNY   73  60  63 NE12      30.03S HAZE
CHICAGO        MOSUNNY   65  47  52 NE17      30.06R



USA.gov is the U.S. government's official web portal to all federal, state and local government web resources and services.